| time (UTC) | temp F | wind direction | speed knots | gust knots | rain 1hr in | rain 24hr in | rain mn in | humidity % | barometer mb |
| 20260508212912 | 64 | 166 | 0.0 | 5.2 | 0.00 | 0.00 | 0.00 | 55 | 1020.9 |
| 20260508212412 | 64 | 180 | 5.2 | 5.2 | 0.00 | 0.00 | 0.00 | 59 | 1021.1 |
| 20260508211911 | 64 | 161 | 1.7 | 4.3 | 0.00 | 0.00 | 0.00 | 55 | 1021.1 |
| 20260508210412 | 64 | 194 | 0.9 | 4.3 | 0.00 | 0.00 | 0.00 | 55 | 1020.9 |
| 20260508205912 | 65 | 129 | 3.5 | 4.3 | 0.00 | 0.00 | 0.00 | 60 | 1020.9 |
| 20260508205411 | 64 | 93 | 0.9 | 6.1 | 0.00 | 0.00 | 0.00 | 60 | 1021.0 |
| 20260508204912 | 64 | 112 | 0.0 | 6.1 | 0.00 | 0.00 | 0.00 | 55 | 1021.0 |
| 20260508204412 | 64 | 355 | 2.6 | 5.2 | 0.00 | 0.00 | 0.00 | 58 | 1021.0 |
| 20260508203911 | 63 | 115 | 1.7 | 6.1 | 0.00 | 0.00 | 0.00 | 58 | 1021.0 |
| 20260508203412 | 62 | 159 | 2.6 | 6.1 | 0.00 | 0.00 | 0.00 | 57 | 1020.9 |
| 20260508202911 | 62 | 116 | 2.6 | 6.1 | 0.00 | 0.00 | 0.00 | 59 | 1020.9 |
| 20260508201911 | 63 | 53 | 2.6 | 6.1 | 0.00 | 0.00 | 0.00 | 56 | 1021.0 |
| 20260508200912 | 62 | 192 | 3.5 | 4.3 | 0.00 | 0.00 | 0.00 | 57 | 1021.1 |
| 20260508200411 | 62 | 108 | 2.6 | 4.3 | 0.00 | 0.00 | 0.00 | 62 | 1021.1 |
| 20260508195912 | 62 | 81 | 0.9 | 4.3 | 0.00 | 0.00 | 0.00 | 57 | 1021.1 |
| 20260508194411 | 62 | 36 | 3.5 | 5.2 | 0.00 | 0.00 | 0.00 | 62 | 1021.3 |
| 20260508193912 | 61 | 46 | 0.9 | 5.2 | 0.00 | 0.00 | 0.00 | 58 | 1021.2 |
| 20260508193411 | 61 | 179 | 0.9 | 4.3 | 0.00 | 0.00 | 0.00 | 57 | 1021.2 |
| 20260508192911 | 61 | 86 | 2.6 | 4.3 | 0.00 | 0.00 | 0.00 | 59 | 1021.3 |
| 20260508192411 | 61 | 140 | 2.6 | 3.5 | 0.00 | 0.00 | 0.00 | 62 | 1021.4 |
| 20260508191411 | 60 | 123 | 0.0 | 3.5 | 0.00 | 0.00 | 0.00 | 60 | 1021.3 |
| 20260508190911 | 61 | 39 | 0.0 | 2.6 | 0.00 | 0.00 | 0.00 | 59 | 1021.3 |
| 20260508190411 | 61 | 159 | 0.0 | 3.5 | 0.00 | 0.00 | 0.00 | 59 | 1021.3 |
| 20260508185911 | 61 | 133 | 0.0 | 3.5 | 0.00 | 0.00 | 0.00 | 60 | 1021.3 |
| 20260508185411 | 61 | 133 | 0.0 | 4.3 | 0.00 | 0.00 | 0.00 | 60 | 1021.4 |
| 20260508184411 | 61 | 146 | 0.9 | 4.3 | 0.00 | 0.00 | 0.00 | 56 | 1021.4 |
| 20260508183910 | 61 | 86 | 0.9 | 4.3 | 0.00 | 0.00 | 0.00 | 60 | 1021.5 |
| 20260508183411 | 60 | 320 | 1.7 | 4.3 | 0.00 | 0.00 | 0.00 | 58 | 1021.5 |
| 20260508182911 | 60 | 217 | 4.3 | 4.3 | 0.00 | 0.00 | 0.00 | 60 | 1021.5 |
| 20260508182411 | 60 | 142 | 0.0 | 4.3 | 0.00 | 0.00 | 0.00 | 57 | 1021.3 |
| 20260508181411 | 61 | 294 | 0.0 | 4.3 | 0.00 | 0.00 | 0.00 | 60 | 1021.3 |
| 20260508180910 | 62 | 320 | 1.7 | 4.3 | 0.00 | 0.00 | 0.00 | 55 | 1021.3 |
| 20260508180410 | 63 | 247 | 0.9 | 4.3 | 0.00 | 0.00 | 0.00 | 60 | 1021.3 |
| 20260508175910 | 62 | 246 | 2.6 | 6.1 | 0.00 | 0.00 | 0.00 | 60 | 1021.3 |
| 20260508175410 | 62 | 220 | 0.9 | 6.1 | 0.00 | 0.00 | 0.00 | 60 | 1021.3 |
| 20260508174410 | 61 | 329 | 0.9 | 3.5 | 0.00 | 0.00 | 0.00 | 63 | 1021.3 |
| 20260508173910 | 60 | 215 | 2.6 | 3.5 | 0.00 | 0.00 | 0.00 | 64 | 1021.2 |
| 20260508172410 | 58 | 208 | 1.7 | 6.1 | 0.00 | 0.00 | 0.00 | 65 | 1021.0 |
| 20260508171910 | 58 | 239 | 0.9 | 6.1 | 0.00 | 0.00 | 0.00 | 65 | 1021.0 |
| 20260508170911 | 58 | 216 | 1.7 | 6.1 | 0.00 | 0.00 | 0.00 | 66 | 1021.0 |
| 20260508170410 | 57 | 360 | 0.9 | 4.3 | 0.00 | 0.00 | 0.00 | 68 | 1021.0 |
| 20260508165910 | 57 | 223 | 0.9 | 4.3 | 0.00 | 0.00 | 0.00 | 71 | 1021.0 |
| 20260508165410 | 56 | 192 | 1.7 | 5.2 | 0.00 | 0.00 | 0.00 | 71 | 1021.0 |
| 20260508164910 | 55 | 194 | 1.7 | 7.8 | 0.00 | 0.00 | 0.00 | 71 | 1021.0 |
| 20260508164410 | 54 | 360 | 0.9 | 7.8 | 0.00 | 0.00 | 0.00 | 72 | 1021.0 |
| 20260508163410 | 54 | 312 | 1.7 | 4.3 | 0.00 | 0.00 | 0.00 | 77 | 1021.0 |
| 20260508162410 | 53 | 360 | 1.7 | 4.3 | 0.00 | 0.00 | 0.00 | 78 | 1020.8 |
| 20260508161910 | 53 | 360 | 0.0 | 4.3 | 0.00 | 0.00 | 0.00 | 78 | 1020.8 |
| 20260508160909 | 53 | 360 | 2.6 | 3.5 | 0.00 | 0.00 | 0.00 | 78 | 1020.6 |
| 20260508160410 | 53 | 360 | 2.6 | 6.1 | 0.00 | 0.00 | 0.00 | 79 | 1020.6 |
| 20260508155910 | 52 | 360 | 3.5 | 6.1 | 0.00 | 0.00 | 0.00 | 80 | 1020.6 |
| 20260508155410 | 52 | 187 | 2.6 | 6.1 | 0.00 | 0.00 | 0.00 | 80 | 1020.3 |
| 20260508154910 | 53 | 132 | 1.7 | 5.2 | 0.00 | 0.00 | 0.00 | 82 | 1020.3 |
| 20260508154409 | 52 | 202 | 3.5 | 5.2 | 0.00 | 0.00 | 0.00 | 80 | 1020.3 |
| 20260508152910 | 51 | 137 | 0.9 | 2.6 | 0.00 | 0.00 | 0.00 | 82 | 1020.7 |
| 20260508152410 | 51 | 175 | 2.6 | 4.3 | 0.00 | 0.00 | 0.00 | 83 | 1020.3 |
| 20260508151909 | 51 | 172 | 0.9 | 4.3 | 0.00 | 0.00 | 0.00 | 84 | 1020.3 |
| 20260508151409 | 51 | 152 | 0.0 | 2.6 | 0.00 | 0.00 | 0.00 | 87 | 1020.3 |
| 20260508150409 | 49 | 178 | 1.7 | 1.7 | 0.00 | 0.00 | 0.00 | 91 | 1020.5 |
| 20260508145409 | 47 | 360 | 0.0 | 0.0 | 0.00 | 0.00 | 0.00 | 91 | 1020.3 |
| 20260508144910 | 46 | 360 | 0.0 | 0.0 | 0.00 | 0.00 | 0.00 | 90 | 1020.3 |
| 20260508144409 | 46 | 360 | 0.0 | 0.0 | 0.00 | 0.00 | 0.00 | 90 | 1020.3 |
| 20260508143909 | 46 | 360 | 0.0 | 0.0 | 0.00 | 0.00 | 0.00 | 90 | 1020.3 |
| 20260508143410 | 46 | 360 | 0.0 | 0.9 | 0.00 | 0.00 | 0.00 | 91 | 1020.3 |
| 20260508142909 | 46 | 360 | 0.0 | 1.7 | 0.00 | 0.00 | 0.00 | 91 | 1020.3 |
| 20260508141909 | 45 | 360 | 0.0 | 0.0 | 0.00 | 0.00 | 0.00 | 91 | 1020.2 |
| 20260508141409 | 45 | 360 | 0.0 | 0.0 | 0.00 | 0.00 | 0.00 | 91 | 1020.2 |
| 20260508140409 | 45 | 360 | 0.0 | 0.0 | 0.00 | 0.00 | 0.00 | 92 | 1020.1 |
| 20260508135409 | 45 | 360 | 0.0 | 0.0 | 0.00 | 0.00 | 0.00 | 92 | 1020.2 |
| 20260508134909 | 44 | 360 | 0.0 | 0.0 | 0.00 | 0.00 | 0.00 | 92 | 1020.2 |
| 20260508134409 | 44 | 360 | 0.0 | 0.0 | 0.00 | 0.00 | 0.00 | 92 | 1020.2 |
| 20260508133909 | 44 | 360 | 0.0 | 0.0 | 0.00 | 0.00 | 0.00 | 92 | 1019.8 |
| 20260508132909 | 44 | 195 | 0.0 | 0.0 | 0.00 | 0.00 | 0.00 | 91 | 1019.8 |
| 20260508132409 | 44 | 195 | 0.0 | 0.0 | 0.00 | 0.00 | 0.00 | 91 | 1019.7 |
| 20260508131909 | 44 | 195 | 0.0 | 0.0 | 0.00 | 0.00 | 0.00 | 91 | 1019.7 |
| 20260508131409 | 43 | 195 | 0.0 | 0.0 | 0.00 | 0.00 | 0.00 | 90 | 1019.7 |
| 20260508130909 | 43 | 195 | 0.0 | 0.0 | 0.00 | 0.00 | 0.00 | 90 | 1019.5 |
| 20260508130409 | 43 | 195 | 0.0 | 0.0 | 0.00 | 0.00 | 0.00 | 90 | 1019.5 |
| 20260508125909 | 43 | 195 | 0.0 | 0.0 | 0.00 | 0.00 | 0.00 | 90 | 1019.5 |
| 20260508125409 | 43 | 195 | 0.0 | 0.0 | 0.00 | 0.00 | 0.00 | 90 | 1019.3 |
| 20260508124909 | 43 | 195 | 0.0 | 0.0 | 0.00 | 0.00 | 0.00 | 89 | 1019.3 |
| 20260508124409 | 43 | 195 | 0.0 | 0.0 | 0.00 | 0.00 | 0.00 | 89 | 1019.3 |
| 20260508123908 | 44 | 195 | 0.0 | 0.0 | 0.00 | 0.00 | 0.00 | 89 | 1019.1 |
| 20260508122909 | 44 | 195 | 0.0 | 0.0 | 0.00 | 0.00 | 0.00 | 89 | 1019.1 |
| 20260508121909 | 44 | 195 | 0.0 | 0.0 | 0.00 | 0.00 | 0.00 | 89 | 1019.0 |
| 20260508121409 | 44 | 195 | 0.0 | 0.0 | 0.00 | 0.00 | 0.00 | 89 | 1019.0 |
| 20260508120908 | 44 | 195 | 0.0 | 0.0 | 0.00 | 0.00 | 0.00 | 89 | 1018.6 |
| 20260508120409 | 44 | 195 | 0.0 | 0.0 | 0.00 | 0.00 | 0.00 | 89 | 1018.6 |
| 20260508115908 | 44 | 195 | 0.0 | 0.0 | 0.00 | 0.00 | 0.00 | 89 | 1018.6 |
| 20260508114908 | 44 | 195 | 0.0 | 0.0 | 0.00 | 0.00 | 0.00 | 89 | 1018.6 |
| 20260508114409 | 44 | 195 | 0.0 | 0.0 | 0.00 | 0.00 | 0.00 | 89 | 1018.6 |
| 20260508113909 | 44 | 195 | 0.0 | 0.0 | 0.00 | 0.00 | 0.00 | 89 | 1018.7 |
| 20260508113408 | 44 | 195 | 0.0 | 0.0 | 0.00 | 0.00 | 0.00 | 89 | 1018.7 |
| 20260508112908 | 44 | 195 | 0.0 | 0.0 | 0.00 | 0.00 | 0.00 | 89 | 1018.7 |
| 20260508112408 | 44 | 195 | 0.0 | 0.0 | 0.00 | 0.00 | 0.00 | 89 | 1018.5 |
| 20260508111908 | 44 | 195 | 0.0 | 0.0 | 0.00 | 0.00 | 0.00 | 89 | 1018.5 |
| 20260508111408 | 45 | 195 | 0.0 | 0.0 | 0.00 | 0.00 | 0.00 | 89 | 1018.5 |
| 20260508110908 | 45 | 194 | 0.0 | 0.0 | 0.00 | 0.00 | 0.00 | 89 | 1018.1 |
| 20260508105908 | 45 | 360 | 0.0 | 0.0 | 0.00 | 0.00 | 0.00 | 89 | 1018.1 |
| 20260508105408 | 45 | 360 | 0.0 | 0.0 | 0.00 | 0.00 | 0.00 | 89 | 1017.9 |
| 20260508104908 | 45 | 360 | 0.0 | 0.0 | 0.00 | 0.00 | 0.00 | 89 | 1017.9 |
| 20260508104407 | 44 | 360 | 0.0 | 0.0 | 0.00 | 0.00 | 0.00 | 89 | 1017.9 |
| 20260508103907 | 44 | 360 | 0.0 | 0.0 | 0.00 | 0.00 | 0.00 | 89 | 1017.8 |
| 20260508103408 | 44 | 360 | 0.0 | 0.0 | 0.00 | 0.00 | 0.00 | 89 | 1017.8 |
| 20260508102908 | 44 | 195 | 0.0 | 0.0 | 0.00 | 0.00 | 0.00 | 89 | 1017.8 |
| 20260508101908 | 44 | 195 | 0.0 | 0.0 | 0.00 | 0.00 | 0.00 | 89 | 1017.7 |
| 20260508101407 | 44 | 195 | 0.0 | 0.0 | 0.00 | 0.00 | 0.00 | 89 | 1017.7 |
| 20260508100407 | 44 | 195 | 0.0 | 0.0 | 0.00 | 0.00 | 0.00 | 89 | 1017.6 |
| 20260508095908 | 44 | 195 | 0.0 | 0.0 | 0.00 | 0.00 | 0.00 | 89 | 1017.6 |
| 20260508095407 | 44 | 195 | 0.0 | 0.0 | 0.00 | 0.00 | 0.00 | 89 | 1017.5 |
| 20260508093908 | 45 | 195 | 0.0 | 0.0 | 0.00 | 0.00 | 0.00 | 89 | 1017.2 |
| 20260508092907 | 45 | 195 | 0.0 | 0.0 | 0.00 | 0.00 | 0.00 | 89 | 1017.2 |
| 20260508091907 | 45 | 195 | 0.0 | 0.0 | 0.00 | 0.00 | 0.00 | 89 | 1017.1 |
| 20260508091407 | 45 | 195 | 0.0 | 0.0 | 0.00 | 0.00 | 0.00 | 89 | 1017.1 |
| 20260508090907 | 45 | 195 | 0.0 | 0.0 | 0.00 | 0.00 | 0.00 | 89 | 1016.9 |
| 20260508090407 | 45 | 360 | 0.0 | 0.0 | 0.00 | 0.00 | 0.00 | 89 | 1016.9 |
| 20260508085907 | 45 | 360 | 0.0 | 0.0 | 0.00 | 0.00 | 0.00 | 89 | 1016.9 |
| 20260508085407 | 45 | 194 | 0.0 | 0.0 | 0.00 | 0.00 | 0.00 | 89 | 1017.0 |
| 20260508084907 | 46 | 360 | 0.0 | 0.0 | 0.00 | 0.00 | 0.00 | 89 | 1017.0 |
| 20260508084407 | 46 | 360 | 0.0 | 0.0 | 0.00 | 0.00 | 0.00 | 89 | 1017.0 |
| 20260508083407 | 46 | 195 | 0.0 | 0.0 | 0.00 | 0.00 | 0.00 | 89 | 1016.9 |
| 20260508082907 | 47 | 360 | 0.0 | 0.0 | 0.00 | 0.00 | 0.00 | 89 | 1016.9 |
| 20260508082407 | 47 | 360 | 0.0 | 0.0 | 0.00 | 0.00 | 0.00 | 89 | 1016.8 |
| 20260508081907 | 47 | 360 | 0.0 | 0.0 | 0.00 | 0.00 | 0.00 | 89 | 1016.8 |
| 20260508081406 | 47 | 360 | 0.0 | 0.0 | 0.00 | 0.00 | 0.00 | 89 | 1016.8 |
| 20260508080406 | 47 | 360 | 0.0 | 0.0 | 0.00 | 0.00 | 0.00 | 88 | 1016.6 |
| 20260508075906 | 47 | 360 | 0.0 | 0.0 | 0.00 | 0.00 | 0.00 | 88 | 1016.6 |
| 20260508073407 | 48 | 360 | 0.0 | 0.0 | 0.00 | 0.00 | 0.00 | 86 | 1016.6 |
| 20260508071907 | 49 | 360 | 0.0 | 0.0 | 0.00 | 0.00 | 0.00 | 86 | 1016.4 |
| 20260508071406 | 49 | 360 | 0.0 | 0.0 | 0.00 | 0.00 | 0.00 | 86 | 1016.4 |
| 20260508070907 | 49 | 360 | 0.0 | 0.0 | 0.00 | 0.00 | 0.00 | 86 | 1016.3 |
| 20260508065936 | 50 | 360 | 0.0 | 0.0 | 0.00 | 0.00 | 0.00 | 85 | 1016.3 |
| 20260508064907 | 50 | 360 | 0.0 | 0.0 | 0.00 | 0.00 | 0.00 | 85 | 1016.3 |
| 20260508064407 | 50 | 360 | 0.0 | 0.0 | 0.00 | 0.00 | 0.00 | 84 | 1016.3 |
| 20260508062906 | 51 | 195 | 0.0 | 0.0 | 0.00 | 0.00 | 0.00 | 84 | 1016.4 |
| 20260508062406 | 52 | 195 | 0.0 | 0.0 | 0.00 | 0.00 | 0.00 | 84 | 1016.3 |
| 20260508061907 | 52 | 360 | 0.0 | 0.0 | 0.00 | 0.00 | 0.00 | 83 | 1016.3 |
| 20260508060907 | 52 | 360 | 0.0 | 0.0 | 0.00 | 0.00 | 0.00 | 82 | 1016.2 |
| 20260508060407 | 53 | 360 | 0.0 | 0.0 | 0.00 | 0.00 | 0.00 | 81 | 1016.2 |
| 20260508055906 | 53 | 360 | 0.0 | 0.0 | 0.00 | 0.00 | 0.00 | 81 | 1016.2 |
| 20260508055406 | 53 | 360 | 0.0 | 0.0 | 0.00 | 0.00 | 0.00 | 80 | 1016.3 |
| 20260508054906 | 53 | 195 | 0.0 | 0.0 | 0.00 | 0.00 | 0.00 | 80 | 1016.3 |
| 20260508053907 | 54 | 195 | 0.0 | 0.0 | 0.00 | 0.00 | 0.00 | 79 | 1016.3 |
| 20260508053406 | 54 | 195 | 0.0 | 0.0 | 0.00 | 0.00 | 0.00 | 79 | 1016.3 |
| 20260508052406 | 55 | 195 | 0.0 | 0.0 | 0.00 | 0.00 | 0.00 | 78 | 1016.3 |
| 20260508050906 | 56 | 195 | 0.0 | 0.0 | 0.00 | 0.00 | 0.00 | 76 | 1016.2 |
| 20260508050406 | 56 | 195 | 0.0 | 0.0 | 0.00 | 0.00 | 0.00 | 76 | 1016.2 |
| 20260508045406 | 56 | 195 | 0.0 | 0.9 | 0.00 | 0.00 | 0.00 | 75 | 1016.1 |
| 20260508043406 | 58 | 196 | 0.0 | 1.7 | 0.00 | 0.00 | 0.00 | 72 | 1016.1 |
| 20260508042906 | 58 | 255 | 0.0 | 0.9 | 0.00 | 0.00 | 0.00 | 71 | 1016.1 |
| 20260508042406 | 58 | 255 | 0.9 | 0.9 | 0.00 | 0.00 | 0.00 | 71 | 1016.0 |
| 20260508041906 | 58 | 256 | 0.0 | 0.0 | 0.00 | 0.00 | 0.00 | 69 | 1016.0 |
| 20260508041406 | 59 | 256 | 0.0 | 0.0 | 0.00 | 0.00 | 0.00 | 69 | 1016.1 |
| 20260508040906 | 59 | 256 | 0.0 | 0.0 | 0.00 | 0.00 | 0.00 | 68 | 1015.8 |
| 20260508040406 | 59 | 256 | 0.0 | 0.0 | 0.00 | 0.00 | 0.00 | 67 | 1015.8 |
| 20260508035906 | 60 | 256 | 0.0 | 0.0 | 0.00 | 0.00 | 0.00 | 67 | 1015.8 |
| 20260508035406 | 60 | 256 | 0.0 | 0.0 | 0.00 | 0.00 | 0.00 | 65 | 1015.5 |
| 20260508034906 | 60 | 256 | 0.0 | 0.0 | 0.00 | 0.00 | 0.00 | 64 | 1015.5 |
| 20260508034405 | 61 | 256 | 0.0 | 0.0 | 0.00 | 0.00 | 0.00 | 64 | 1015.5 |
| 20260508033906 | 61 | 256 | 0.0 | 0.0 | 0.00 | 0.00 | 0.00 | 63 | 1015.1 |
| 20260508032905 | 62 | 256 | 0.0 | 0.0 | 0.00 | 0.00 | 0.00 | 62 | 1015.2 |
| 20260508032406 | 62 | 256 | 0.0 | 0.9 | 0.00 | 0.00 | 0.00 | 61 | 1015.1 |
| 20260508031905 | 63 | 256 | 0.0 | 0.9 | 0.00 | 0.00 | 0.00 | 61 | 1015.1 |
| 20260508031405 | 63 | 256 | 0.0 | 0.9 | 0.00 | 0.00 | 0.00 | 62 | 1015.1 |
| 20260508030935 | 63 | 255 | 0.0 | 0.9 | 0.00 | 0.00 | 0.00 | 62 | 1015.0 |
| 20260508030406 | 64 | 255 | 0.0 | 0.9 | 0.00 | 0.00 | 0.00 | 60 | 1015.0 |
| 20260508025906 | 64 | 255 | 0.0 | 0.9 | 0.00 | 0.00 | 0.00 | 61 | 1015.0 |
| 20260508025406 | 64 | 255 | 0.0 | 0.0 | 0.00 | 0.00 | 0.00 | 61 | 1015.1 |
| 20260508023905 | 65 | 255 | 0.0 | 0.9 | 0.00 | 0.00 | 0.00 | 62 | 1015.1 |
| 20260508023405 | 65 | 255 | 0.9 | 0.9 | 0.00 | 0.00 | 0.00 | 61 | 1015.1 |
| 20260508022905 | 66 | 257 | 0.0 | 1.7 | 0.00 | 0.00 | 0.00 | 62 | 1015.1 |
| 20260508022405 | 66 | 257 | 0.0 | 1.7 | 0.00 | 0.00 | 0.00 | 61 | 1015.1 |
| 20260508021905 | 66 | 257 | 0.0 | 1.7 | 0.00 | 0.00 | 0.00 | 61 | 1015.1 |
| 20260508021405 | 67 | 257 | 0.0 | 1.7 | 0.00 | 0.00 | 0.00 | 61 | 1015.1 |
| 20260508020905 | 67 | 256 | 0.9 | 1.7 | 0.00 | 0.00 | 0.00 | 60 | 1015.1 |
| 20260508020405 | 67 | 102 | 0.9 | 1.7 | 0.00 | 0.00 | 0.00 | 58 | 1015.1 |
| 20260508015905 | 68 | 103 | 1.7 | 1.7 | 0.00 | 0.00 | 0.00 | 59 | 1015.1 |
| 20260508015405 | 68 | 105 | 0.0 | 1.7 | 0.00 | 0.00 | 0.00 | 59 | 1015.1 |
| 20260508014905 | 68 | 79 | 0.0 | 2.6 | 0.00 | 0.00 | 0.00 | 57 | 1015.1 |
| 20260508014405 | 69 | 86 | 0.0 | 4.3 | 0.00 | 0.00 | 0.00 | 56 | 1015.1 |
| 20260508013905 | 69 | 96 | 0.0 | 4.3 | 0.00 | 0.00 | 0.00 | 56 | 1015.1 |
| 20260508013405 | 69 | 42 | 0.9 | 3.5 | 0.00 | 0.00 | 0.00 | 54 | 1015.1 |
| 20260508012905 | 69 | 31 | 2.6 | 3.5 | 0.00 | 0.00 | 0.00 | 55 | 1015.1 |
| 20260508012405 | 69 | 61 | 0.9 | 3.5 | 0.00 | 0.00 | 0.00 | 55 | 1015.5 |
| 20260508011905 | 69 | 22 | 0.0 | 4.3 | 0.00 | 0.00 | 0.00 | 55 | 1015.5 |
| 20260508010904 | 69 | 38 | 1.7 | 4.3 | 0.00 | 0.00 | 0.00 | 54 | 1015.5 |
| 20260508010404 | 69 | 61 | 1.7 | 4.3 | 0.00 | 0.00 | 0.00 | 55 | 1015.5 |
| 20260508005904 | 69 | 59 | 0.0 | 2.6 | 0.00 | 0.00 | 0.00 | 53 | 1015.5 |
| 20260508005404 | 69 | 58 | 0.0 | 2.6 | 0.00 | 0.00 | 0.00 | 54 | 1015.5 |
| 20260508004904 | 69 | 48 | 2.6 | 3.5 | 0.00 | 0.00 | 0.00 | 53 | 1015.5 |
| 20260508004404 | 69 | 38 | 2.6 | 4.3 | 0.00 | 0.00 | 0.00 | 52 | 1015.5 |
| 20260508003404 | 70 | 63 | 2.6 | 4.3 | 0.00 | 0.00 | 0.00 | 54 | 1015.5 |
| 20260507235404 | 70 | 71 | 2.6 | 4.3 | 0.00 | 0.00 | 0.00 | 52 | 1015.8 |
| 20260507234404 | 70 | 106 | 3.5 | 5.2 | 0.00 | 0.00 | 0.00 | 53 | 1015.8 |
| 20260507231904 | 69 | 62 | 2.6 | 3.5 | 0.00 | 0.00 | 0.00 | 52 | 1016.2 |
| 20260507230404 | 69 | 195 | 2.6 | 5.2 | 0.00 | 0.00 | 0.00 | 54 | 1016.3 |
| 20260507224904 | 69 | 5 | 1.7 | 5.2 | 0.00 | 0.00 | 0.00 | 53 | 1016.7 |
| 20260507224403 | 69 | 54 | 0.9 | 4.3 | 0.00 | 0.00 | 0.00 | 55 | 1016.7 |
| 20260507223903 | 69 | 127 | 1.7 | 3.5 | 0.00 | 0.00 | 0.00 | 55 | 1016.8 |
| 20260507223403 | 69 | 88 | 0.0 | 5.2 | 0.00 | 0.00 | 0.00 | 53 | 1016.8 |
| 20260507222903 | 69 | 129 | 0.0 | 5.2 | 0.00 | 0.00 | 0.00 | 54 | 1016.8 |
| 20260507222403 | 69 | 168 | 1.7 | 4.3 | 0.00 | 0.00 | 0.00 | 55 | 1017.0 |
| 20260507221903 | 69 | 117 | 2.6 | 5.2 | 0.00 | 0.00 | 0.00 | 55 | 1017.0 |
| 20260507221403 | 69 | 42 | 1.7 | 5.2 | 0.00 | 0.00 | 0.00 | 53 | 1017.0 |
| 20260507220903 | 69 | 170 | 0.0 | 4.3 | 0.00 | 0.00 | 0.00 | 56 | 1017.2 |
| 20260507220403 | 68 | 101 | 1.7 | 3.5 | 0.00 | 0.00 | 0.00 | 57 | 1017.2 |
| 20260507215904 | 68 | 175 | 1.7 | 4.3 | 0.00 | 0.00 | 0.00 | 56 | 1017.2 |
| 20260507215403 | 68 | 174 | 3.5 | 4.3 | 0.00 | 0.00 | 0.00 | 56 | 1017.5 |
| 20260507214434 | 67 | 130 | 0.9 | 6.1 | 0.00 | 0.00 | 0.00 | 56 | 1017.5 |
| 20260507213903 | 67 | 175 | 1.7 | 5.2 | 0.00 | 0.00 | 0.00 | 55 | 1017.6 |